{"data":{"norad_id":57736,"epoch":"2026-05-24T22:55:11.885952Z","epoch_age_seconds":92996,"freshness":"FRESH","line1":"1 57736U 23131E   26144.95499868  .00000246  00000+0  18862-4 0  9993","line2":"2 57736  43.0059 109.1175 0001176 272.5313  87.5404 15.26741205151494","mean_motion":15.26741205,"eccentricity":0.0001176,"inclination_deg":43.0059,"raan_deg":109.1175,"arg_perigee_deg":272.5313,"mean_anomaly_deg":87.5404,"bstar":1.8862e-5,"rev_number":15149,"period_min":94.318539074211,"perigee_km":484.75472888732,"apogee_km":486.36907086857,"semimajor_km":6863.6988998779,"source":"CELESTRAK","updated_at":"2026-05-25T13:38:18.398194Z"}}